TimeMST,TemperatureF,Dew PointF,Humidity,Sea Level PressureIn,VisibilityMPH,Wind Direction,Wind SpeedMPH,Gust SpeedMPH,PrecipitationIn,Events,Conditions,WindDirDegrees,DateUTC
12:53 AM,32.0,30.9,96,30.21,8.0,Calm,Calm,-,N/A,,Mostly Cloudy,0,2012-11-28 07:53:00
1:53 AM,32.0,30.0,92,30.20,8.0,Calm,Calm,-,N/A,,Mostly Cloudy,0,2012-11-28 08:53:00
2:53 AM,32.0,28.9,88,30.20,7.0,Calm,Calm,-,N/A,,Scattered Clouds,0,2012-11-28 09:53:00
3:53 AM,32.0,28.9,88,30.19,7.0,Calm,Calm,-,N/A,,Mostly Cloudy,0,2012-11-28 10:53:00
4:53 AM,32.0,30.0,92,30.22,7.0,Calm,Calm,-,N/A,,Mostly Cloudy,0,2012-11-28 11:53:00
5:53 AM,32.0,28.0,85,30.20,8.0,Calm,Calm,-,N/A,,Scattered Clouds,0,2012-11-28 12:53:00
6:53 AM,30.0,28.0,92,30.22,8.0,South,3.5,-,N/A,,Scattered Clouds,180,2012-11-28 13:53:00
7:53 AM,34.0,27.0,75,30.18,10.0,SSE,3.5,-,N/A,,Scattered Clouds,150,2012-11-28 14:53:00
8:53 AM,33.1,30.0,89,30.19,10.0,Calm,Calm,-,N/A,,Scattered Clouds,0,2012-11-28 15:53:00
9:53 AM,44.1,28.9,55,30.19,10.0,SSE,6.9,-,N/A,,Scattered Clouds,150,2012-11-28 16:53:00
10:53 AM,48.9,27.0,43,30.16,10.0,Calm,Calm,-,N/A,,Scattered Clouds,0,2012-11-28 17:53:00
11:53 AM,54.0,28.0,37,30.12,10.0,NW,3.5,-,N/A,,Mostly Cloudy,320,2012-11-28 18:53:00
12:53 PM,59.0,27.0,29,30.06,10.0,SE,3.5,-,N/A,,Scattered Clouds,140,2012-11-28 19:53:00
1:53 PM,61.0,26.1,26,30.01,10.0,South,15.0,24.2,N/A,,Mostly Cloudy,170,2012-11-28 20:53:00
2:00 PM,62.6,26.6,26,30.05,10.0,South,16.1,24.2,N/A,,Mostly Cloudy,170,2012-11-28 21:00:00
2:53 PM,61.0,25.0,25,29.97,10.0,South,18.4,26.5,N/A,,Mostly Cloudy,170,2012-11-28 21:53:00
3:53 PM,61.0,24.1,24,29.97,10.0,South,13.8,20.7,N/A,,Overcast,170,2012-11-28 22:53:00
4:53 PM,46.0,37.0,71,30.01,10.0,NW,3.5,-,N/A,,Overcast,310,2012-11-28 23:53:00
5:53 PM,43.0,37.0,80,29.99,10.0,North,4.6,-,N/A,,Mostly Cloudy,350,2012-11-29 00:53:00
6:53 PM,42.1,36.0,79,29.97,9.0,Calm,Calm,-,N/A,,Mostly Cloudy,0,2012-11-29 01:53:00
7:53 PM,43.0,36.0,76,29.99,9.0,Calm,Calm,-,N/A,,Mostly Cloudy,0,2012-11-29 02:53:00
8:53 PM,55.9,28.0,34,29.96,9.0,SSE,13.8,-,N/A,,Mostly Cloudy,160,2012-11-29 03:53:00
9:53 PM,57.0,27.0,32,29.93,10.0,SSE,17.3,-,N/A,,Overcast,160,2012-11-29 04:53:00
10:53 PM,57.9,24.1,27,29.93,10.0,South,19.6,26.5,N/A,,Overcast,170,2012-11-29 05:53:00
11:53 PM,57.0,24.1,28,29.95,10.0,South,17.3,-,N/A,,Mostly Cloudy,170,2012-11-29 06:53:00